TimePDT,TemperatureF,Dew PointF,Humidity,Sea Level PressureIn,VisibilityMPH,Wind Direction,Wind SpeedMPH,Gust SpeedMPH,PrecipitationIn,Events,Conditions,WindDirDegrees,DateUTC
12:52 AM,69.1,46.0,44,30.02,10.0,Calm,Calm,-,N/A,,Clear,0,2012-10-14 07:52:00
1:52 AM,66.9,48.0,51,30.02,10.0,Calm,Calm,-,N/A,,Clear,0,2012-10-14 08:52:00
2:52 AM,68.0,48.0,49,30.02,10.0,NNW,3.5,-,N/A,,Clear,340,2012-10-14 09:52:00
3:52 AM,66.9,46.0,47,30.02,10.0,Variable,3.5,-,N/A,,Clear,0,2012-10-14 10:52:00
4:52 AM,64.9,46.0,50,30.02,10.0,Calm,Calm,-,N/A,,Clear,0,2012-10-14 11:52:00
5:52 AM,63.0,45.0,52,30.04,10.0,West,4.6,-,N/A,,Clear,260,2012-10-14 12:52:00
6:52 AM,61.0,46.0,58,30.05,10.0,Calm,Calm,-,N/A,,Clear,0,2012-10-14 13:52:00
7:52 AM,66.0,46.9,50,30.07,10.0,South,3.5,-,N/A,,Clear,170,2012-10-14 14:52:00
8:52 AM,73.0,48.9,42,30.08,10.0,Calm,Calm,-,N/A,,Clear,0,2012-10-14 15:52:00
9:52 AM,77.0,50.0,39,30.07,10.0,ENE,4.6,-,N/A,,Clear,70,2012-10-14 16:52:00
10:52 AM,80.1,53.1,39,30.06,10.0,ENE,6.9,-,N/A,,Clear,70,2012-10-14 17:52:00
11:52 AM,84.0,52.0,33,30.04,10.0,Calm,Calm,-,N/A,,Clear,0,2012-10-14 18:52:00
1:52 PM,90.0,42.1,19,29.96,10.0,NE,8.1,-,N/A,,Clear,40,2012-10-14 20:52:00
2:52 PM,90.0,42.1,19,29.94,10.0,WNW,3.5,-,N/A,,Clear,290,2012-10-14 21:52:00
3:52 PM,91.0,41.0,17,29.92,10.0,Calm,Calm,-,N/A,,Clear,0,2012-10-14 22:52:00
4:52 PM,90.0,46.9,23,29.91,10.0,East,6.9,-,N/A,,Clear,100,2012-10-14 23:52:00
5:52 PM,87.1,48.0,26,29.91,10.0,East,4.6,-,N/A,,Clear,90,2012-10-15 00:52:00
6:52 PM,82.0,48.0,30,29.91,10.0,North,4.6,-,N/A,,Clear,10,2012-10-15 01:52:00
7:52 PM,79.0,48.9,35,29.91,10.0,NW,4.6,-,N/A,,Clear,310,2012-10-15 02:52:00
8:52 PM,77.0,44.1,31,29.92,10.0,NNW,5.8,-,N/A,,Clear,330,2012-10-15 03:52:00
9:52 PM,80.1,44.1,28,29.93,10.0,NNW,8.1,-,N/A,,Clear,330,2012-10-15 04:52:00
10:52 PM,81.0,42.1,25,29.93,10.0,NNW,10.4,-,N/A,,Clear,340,2012-10-15 05:52:00
11:52 PM,79.0,41.0,26,29.92,10.0,NNW,11.5,-,N/A,,Clear,340,2012-10-15 06:52:00